User: anonymous   Login
Location: Unspecified
(0.0000°N, 0.0000°E)
Time: 04:08:22
(UTC+00:00)
Language:

USA 142 - Orbit

View from above orbital plane
View from above orbital plane
View from above satellite
View from above satellite

Ground track
Ground track

The orbit data is extracted from the following two-line orbital elements,

1 25669U 99017A   17360.76688129 0.00000000  00000-0  00000-0 0    01
2 25669  29.3980  51.7155 7101380 228.5521  44.3996  2.32913774    03
Epoch (UTC): 26 December 2017 18:24:18
Eccentricity: 0.7101380
inclination: 29.3980°
perigee height: 590 km
apogee height: 34733 km
right ascension of ascending node: 51.7155°
argument of perigee: 228.5521°
revolutions per day: 2.32913774
mean anomaly at epoch: 44.3996°
orbit number at epoch: 0

The dashed part of the orbit path shows where the satellite is in the earth's shadow,  

DLR